Hourly Weather Alibag

Today, 27 February, Saturday

Time Temperature Precipitation Wind Pressure Humidity
00:00 +25°C° 0 mm 3 mps 758 mmHg 68%
01:00 +25°C° 0 mm 3 mps 757 mmHg 70%
02:00 +25°C° 0 mm 3 mps 757 mmHg 72%
03:00 +24°C° 0 mm 3 mps 757 mmHg 71%
04:00 +24°C° 0 mm 3 mps 756 mmHg 70%
05:00 +22°C° 0 mm 3 mps 756 mmHg 69%
06:00 +24°C° 0 mm 3 mps 757 mmHg 63%
07:00 +26°C° 0 mm 3 mps 758 mmHg 57%
08:00 +27°C° 0 mm 3 mps 758 mmHg 51%
09:00 +29°C° 0 mm 3 mps 758 mmHg 43%
10:00 +33°C° 0 mm 3 mps 758 mmHg 34%
11:00 +36°C° 0 mm 3 mps 758 mmHg 26%
12:00 +36°C° 0 mm 4 mps 758 mmHg 28%
13:00 +36°C° 0 mm 5 mps 757 mmHg 30%
14:00 +36°C° 0 mm 5 mps 756 mmHg 32%
15:00 +35°C° 0 mm 5 mps 756 mmHg 37%
16:00 +34°C° 0 mm 5 mps 755 mmHg 42%
17:00 +33°C° 0 mm 5 mps 755 mmHg 47%
18:00 +30°C° 0 mm 5 mps 756 mmHg 53%
19:00 +28°C° 0 mm 4 mps 756 mmHg 60%
20:00 +26°C° 0 mm 4 mps 757 mmHg 67%
21:00 +26°C° 0 mm 3 mps 757 mmHg 67%
22:00 +26°C° 0 mm 3 mps 757 mmHg 66%
23:00 +26°C° 0 mm 3 mps 757 mmHg 66%

Tomorrow, 28 February, Sunday

Time Temperature Precipitation Wind Pressure Humidity
00:00 +26°C° 0 mm 4 mps 757 mmHg 67%
01:00 +26°C° 0 mm 4 mps 756 mmHg 68%
02:00 +26°C° 0 mm 5 mps 756 mmHg 69%
03:00 +25°C° 0 mm 5 mps 756 mmHg 67%
04:00 +25°C° 0 mm 4 mps 756 mmHg 65%
05:00 +23°C° 0 mm 4 mps 755 mmHg 62%
06:00 +25°C° 0 mm 3 mps 756 mmHg 55%
07:00 +27°C° 0 mm 3 mps 757 mmHg 49%
08:00 +28°C° 0 mm 2 mps 758 mmHg 42%
09:00 +31°C° 0 mm 2 mps 758 mmHg 35%
10:00 +35°C° 0 mm 2 mps 758 mmHg 28%
11:00 +39°C° 0 mm 3 mps 758 mmHg 21%
12:00 +40°C° 0 mm 4 mps 757 mmHg 23%
13:00 +40°C° 0 mm 5 mps 756 mmHg 24%
14:00 +40°C° 0 mm 6 mps 755 mmHg 26%
15:00 +38°C° 0 mm 6 mps 755 mmHg 30%
16:00 +36°C° 0 mm 6 mps 755 mmHg 35%
17:00 +35°C° 0 mm 6 mps 755 mmHg 39%
18:00 +33°C° 0 mm 6 mps 755 mmHg 43%
19:00 +30°C° 0 mm 5 mps 756 mmHg 48%
20:00 +28°C° 0 mm 4 mps 757 mmHg 52%
21:00 +28°C° 0 mm 4 mps 757 mmHg 49%
22:00 +28°C° 0 mm 4 mps 757 mmHg 47%
23:00 +28°C° 0 mm 4 mps 757 mmHg 44%

Day after tomorrow, 1 March, Monday

Time Temperature Precipitation Wind Pressure Humidity
00:00 +28°C° 0 mm 4 mps 757 mmHg 47%
01:00 +27°C° 0 mm 5 mps 757 mmHg 50%
02:00 +27°C° 0 mm 5 mps 757 mmHg 53%
03:00 +26°C° 0 mm 5 mps 757 mmHg 49%
04:00 +26°C° 0 mm 4 mps 756 mmHg 45%
05:00 +26°C° 0 mm 4 mps 756 mmHg 42%
06:00 +27°C° 0 mm 3 mps 757 mmHg 39%
07:00 +28°C° 0 mm 3 mps 758 mmHg 35%
08:00 +30°C° 0 mm 2 mps 759 mmHg 32%
09:00 +33°C° 0 mm 3 mps 759 mmHg 28%
10:00 +36°C° 0 mm 4 mps 759 mmHg 23%
11:00 +40°C° 0 mm 4 mps 759 mmHg 19%
12:00 +40°C° 0 mm 5 mps 758 mmHg 21%
13:00 +40°C° 0 mm 6 mps 757 mmHg 22%
14:00 +41°C° 0 mm 7 mps 756 mmHg 24%
15:00 +39°C° 0 mm 7 mps 756 mmHg 27%
16:00 +38°C° 0 mm 7 mps 756 mmHg 31%
17:00 +36°C° 0 mm 7 mps 756 mmHg 35%
18:00 +34°C° 0 mm 6 mps 757 mmHg 38%
19:00 +32°C° 0 mm 6 mps 757 mmHg 41%
20:00 +30°C° 0 mm 5 mps 758 mmHg 44%
21:00 +29°C° 0 mm 4 mps 758 mmHg 41%
22:00 +29°C° 0 mm 4 mps 758 mmHg 39%
23:00 +29°C° 0 mm 3 mps 758 mmHg 36%

2 March, Tuesday

Time Temperature Precipitation Wind Pressure Humidity
00:00 +28°C° 0 mm 3 mps 758 mmHg 36%
01:00 +28°C° 0 mm 4 mps 758 mmHg 35%
02:00 +28°C° 0 mm 5 mps 758 mmHg 35%
03:00 +27°C° 0 mm 4 mps 757 mmHg 35%
04:00 +27°C° 0 mm 4 mps 757 mmHg 34%
05:00 +26°C° 0 mm 4 mps 757 mmHg 34%
06:00 +27°C° 0 mm 3 mps 758 mmHg 33%
07:00 +29°C° 0 mm 2 mps 758 mmHg 31%
08:00 +30°C° 0 mm 2 mps 759 mmHg 29%
09:00 +34°C° 0 mm 2 mps 759 mmHg 24%
10:00 +36°C° 0 mm 1 mps 759 mmHg 20%
11:00 +40°C° 0 mm 1 mps 759 mmHg 15%
12:00 +40°C° 0 mm 3 mps 759 mmHg 17%
13:00 +40°C° 0 mm 4 mps 758 mmHg 19%
14:00 +40°C° 0 mm 6 mps 757 mmHg 20%
15:00 +39°C° 0 mm 6 mps 757 mmHg 24%
16:00 +36°C° 0 mm 6 mps 757 mmHg 27%
17:00 +35°C° 0 mm 7 mps 756 mmHg 30%
18:00 +33°C° 0 mm 6 mps 757 mmHg 35%
19:00 +30°C° 0 mm 5 mps 757 mmHg 40%
20:00 +29°C° 0 mm 4 mps 758 mmHg 44%
21:00 +28°C° 0 mm 3 mps 758 mmHg 43%
22:00 +28°C° 0 mm 3 mps 758 mmHg 41%
23:00 +28°C° 0 mm 3 mps 758 mmHg 39%

3 March, Wednesday

Time Temperature Precipitation Wind Pressure Humidity
00:00 +27°C° 0 mm 3 mps 757 mmHg 40%
01:00 +27°C° 0 mm 4 mps 757 mmHg 42%
02:00 +26°C° 0 mm 4 mps 756 mmHg 43%
03:00 +26°C° 0 mm 4 mps 756 mmHg 41%
04:00 +25°C° 0 mm 4 mps 756 mmHg 39%
05:00 +25°C° 0 mm 4 mps 756 mmHg 37%
06:00 +26°C° 0 mm 3 mps 757 mmHg 33%
07:00 +27°C° 0 mm 3 mps 758 mmHg 30%
08:00 +29°C° 0 mm 2 mps 758 mmHg 26%
09:00 +32°C° 0 mm 2 mps 758 mmHg 21%
10:00 +37°C° 0 mm 2 mps 758 mmHg 17%
11:00 +41°C° 0 mm 2 mps 758 mmHg 12%
12:00 +40°C° 0 mm 3 mps 758 mmHg 16%
13:00 +40°C° 0 mm 5 mps 757 mmHg 19%
14:00 +39°C° 0 mm 6 mps 756 mmHg 23%
15:00 +36°C° 0 mm 6 mps 756 mmHg 26%
16:00 +35°C° 0 mm 5 mps 756 mmHg 29%
17:00 +34°C° 0 mm 4 mps 756 mmHg 32%
18:00 +31°C° 0 mm 3 mps 756 mmHg 37%
19:00 +29°C° 0 mm 3 mps 757 mmHg 42%
20:00 +27°C° 0 mm 2 mps 757 mmHg 47%
21:00 +27°C° 0 mm 2 mps 757 mmHg 46%
22:00 +26°C° 0 mm 2 mps 757 mmHg 46%
23:00 +26°C° 0 mm 2 mps 757 mmHg 46%

4 March, Thursday

Time Temperature Precipitation Wind Pressure Humidity
00:00 +26°C° 0 mm 2 mps 757 mmHg 45%
01:00 +26°C° 0 mm 3 mps 757 mmHg 43%
02:00 +26°C° 0 mm 3 mps 756 mmHg 42%
03:00 +25°C° 0 mm 3 mps 756 mmHg 41%
04:00 +25°C° 0 mm 3 mps 756 mmHg 39%
05:00 +25°C° 0 mm 3 mps 756 mmHg 38%
06:00 +26°C° 0 mm 2 mps 757 mmHg 34%
07:00 +28°C° 0 mm 2 mps 758 mmHg 31%
08:00 +29°C° 0 mm 2 mps 758 mmHg 28%
09:00 +32°C° 0 mm 2 mps 758 mmHg 23%
10:00 +36°C° 0 mm 3 mps 758 mmHg 19%
11:00 +40°C° 0 mm 4 mps 758 mmHg 15%
12:00 +40°C° 0 mm 5 mps 758 mmHg 18%
13:00 +39°C° 0 mm 5 mps 757 mmHg 20%
14:00 +39°C° 0 mm 6 mps 756 mmHg 23%
15:00 +38°C° 0 mm 6 mps 756 mmHg 27%
16:00 +36°C° 0 mm 6 mps 755 mmHg 30%
17:00 +34°C° 0 mm 5 mps 755 mmHg 33%
18:00 +32°C° 0 mm 4 mps 756 mmHg 39%
19:00 +29°C° 0 mm 3 mps 756 mmHg 44%
20:00 +27°C° 0 mm 2 mps 757 mmHg 50%
21:00 +27°C° 0 mm 2 mps 757 mmHg 48%
22:00 +27°C° 0 mm 2 mps 757 mmHg 46%
23:00 +27°C° 0 mm 2 mps 757 mmHg 43%
Show more